Grass Valley, CA

6:51 PM PST on December 13, 2019 (GMT -0800)
Grass Valley

Weather History for KGOO - October, 2019

Change the Weather History Date:

Tuesday, October 22, 2019

  Actual Average (KAUN) Record (KAUN)
Temperature  
Mean Temperature 67 °F -  
Max Temperature 75 °F 72 °F 88 °F (1964)
Min Temperature 59 °F 49 °F 38 °F (1949)
Cooling Degree Days 2    
Growing Degree Days 17 (Base 50)    
Moisture  
Dew Point 32 °F    
Average Humidity 27    
Maximum Humidity 40    
Minimum Humidity 17    
Precipitation  
Precipitation 0.00 in - - ()
Sea Level Pressure  
Sea Level Pressure 30.23 in    
Wind  
Wind Speed 2 mph ()    
Max Wind Speed 14 mph    
Max Gust Speed 17 mph    
Visibility 10.0 miles    
Events      
Averages and records for this station are not official NWS values.
T = Trace of Precipitation, MM = Missing Value Source: Averaged Metar Reports

Daily Weather History Graph

Daily Weather History Graph

Search for Another Location

Airport or City:

Astronomy

Oct. 22, 2019 Rise Set
Actual Time 7:20 AM PDT 6:15 PM PDT
Civil Twilight 6:53 AM PDT 6:42 PM PDT
Nautical Twilight 6:22 AM PDT 7:13 PM PDT
Astronomical Twilight 5:51 AM PDT 7:44 PM PDT
Moon 12:39 AM PDT (10/22) 3:25 PM PDT (10/22)
Length of Visible Light 11h 49m
Length of Day
10h 54m
Last Quarter, 36% of the Moon is Illuminated
Oct 22
Last Quarter
Oct 27
New
Nov 4
First Quarter
Nov 12
Full
Nov 19
Last Quarter

Hourly Weather History & Observations

Time (PDT) Temp. Dew Point Humidity Pressure Visibility Wind Dir Wind Speed Gust Speed Precip Events Conditions
12:15 AM 66.2 °F 24.8 °F 21% 30.25 in 10.0 mi Calm Calm - N/A   Clear
12:35 AM 66.2 °F 24.8 °F 21% 30.25 in 10.0 mi Calm Calm - N/A   Clear
12:55 AM 66.2 °F 24.8 °F 21% 30.26 in 10.0 mi Calm Calm - N/A   Clear
1:15 AM 64.4 °F 24.8 °F 22% 30.26 in 10.0 mi Calm Calm - N/A   Clear
1:35 AM 64.4 °F 24.8 °F 22% 30.26 in 10.0 mi Calm Calm - N/A   Clear
1:55 AM 60.8 °F 28.4 °F 29% 30.27 in 10.0 mi Calm Calm - N/A   Clear
2:15 AM 60.8 °F 26.6 °F 27% 30.27 in 10.0 mi Calm Calm - N/A   Clear
2:35 AM 62.6 °F 26.6 °F 26% 30.26 in 10.0 mi Calm Calm - N/A   Clear
2:55 AM 62.6 °F 24.8 °F 24% 30.26 in 10.0 mi Calm Calm - N/A   Clear
3:15 AM 62.6 °F 24.8 °F 24% 30.26 in 10.0 mi Calm Calm - N/A   Clear
3:35 AM 62.6 °F 24.8 °F 24% 30.26 in 10.0 mi Calm Calm - N/A   Clear
3:55 AM 60.8 °F 26.6 °F 27% 30.26 in 10.0 mi Calm Calm - N/A   Clear
4:15 AM 60.8 °F 26.6 °F 27% 30.26 in 10.0 mi Calm Calm - N/A   Clear
4:35 AM 60.8 °F 26.6 °F 27% 30.26 in 10.0 mi Calm Calm - N/A   Clear
4:55 AM 60.8 °F 26.6 °F 27% 30.26 in 10.0 mi Calm Calm - N/A   Clear
5:15 AM 60.8 °F 26.6 °F 27% 30.26 in 10.0 mi Calm Calm - N/A   Clear
5:35 AM 59.0 °F 26.6 °F 29% 30.26 in 10.0 mi Calm Calm - N/A   Clear
5:55 AM 60.8 °F 26.6 °F 27% 30.26 in 10.0 mi Calm Calm - N/A   Clear
6:15 AM 64.4 °F 24.8 °F 22% 30.26 in 10.0 mi ESE 4.6 mph - N/A   Clear
6:35 AM 62.6 °F 24.8 °F 24% 30.26 in 10.0 mi East 4.6 mph - N/A   Clear
6:55 AM 60.8 °F 24.8 °F 25% 30.26 in 10.0 mi SE 3.5 mph - N/A   Clear
7:15 AM 62.6 °F 24.8 °F 24% 30.26 in 10.0 mi Calm Calm - N/A   Clear
7:35 AM 62.6 °F 24.8 °F 24% 30.27 in 10.0 mi Calm Calm - N/A   Clear
7:55 AM 59.0 °F 28.4 °F 31% 30.28 in 10.0 mi Calm Calm - N/A   Clear
8:15 AM 60.8 °F 26.6 °F 27% 30.28 in 10.0 mi Calm Calm - N/A   Clear
8:35 AM 60.8 °F 32.0 °F 34% 30.29 in 10.0 mi Calm Calm - N/A   Clear
8:55 AM 64.4 °F 28.4 °F 26% 30.30 in 10.0 mi Calm Calm - N/A   Clear
9:15 AM 66.2 °F 30.2 °F 26% 30.29 in 10.0 mi Calm Calm - N/A   Clear
9:35 AM 68.0 °F 30.2 °F 24% 30.29 in 10.0 mi Calm Calm - N/A   Clear
9:55 AM 69.8 °F 35.6 °F 28% 30.29 in 10.0 mi Calm Calm - N/A   Clear
10:15 AM 71.6 °F 39.2 °F 31% 30.28 in 10.0 mi Calm Calm - N/A   Clear
10:55 AM 73.4 °F 35.6 °F 25% 30.29 in 10.0 mi Calm Calm - N/A   Clear
11:15 AM 71.6 °F 35.6 °F 27% 30.29 in 10.0 mi Calm Calm - N/A   Clear
11:35 AM 73.4 °F 35.6 °F 25% 30.29 in 10.0 mi WNW 3.5 mph - N/A   Clear
11:55 AM 73.4 °F 33.8 °F 23% 30.28 in 10.0 mi West 4.6 mph - N/A   Clear
12:15 PM 73.4 °F 37.4 °F 27% 30.28 in 10.0 mi West 5.8 mph - N/A   Clear
12:30 PM 73.4 °F 35.6 °F 25% 30.27 in 10.0 mi WNW 5.8 mph - N/A   Clear
12:55 PM 75.2 °F 35.6 °F 24% 30.26 in 10.0 mi WNW 4.6 mph - N/A   Clear
1:15 PM 75.2 °F 35.6 °F 24% 30.25 in 10.0 mi West 9.2 mph - N/A   Clear
1:35 PM 75.2 °F 33.8 °F 22% 30.24 in 10.0 mi WNW 8.1 mph - N/A   Clear
2:15 PM 73.4 °F 37.4 °F 27% 30.23 in 10.0 mi WNW 8.1 mph - N/A   Clear
2:35 PM 73.4 °F 37.4 °F 27% 30.22 in 10.0 mi West 9.2 mph - N/A   Clear
2:50 PM 73.4 °F 39.2 °F 29% 30.22 in 10.0 mi Variable 4.6 mph 11.5 mph N/A   Clear
3:10 PM 73.4 °F 39.2 °F 29% 30.21 in 10.0 mi NW 8.1 mph - N/A   Clear
3:35 PM 73.4 °F 39.2 °F 29% 30.20 in 10.0 mi NW 8.1 mph - N/A   Clear
3:55 PM 75.2 °F 41.0 °F 29% 30.20 in 10.0 mi Variable 5.8 mph - N/A   Clear
4:15 PM 75.2 °F 41.0 °F 29% 30.19 in 10.0 mi WNW 6.9 mph - N/A   Clear
4:35 PM 75.2 °F 41.0 °F 29% 30.19 in 10.0 mi Variable 5.8 mph - N/A   Clear
4:55 PM 73.4 °F 41.0 °F 31% 30.18 in 10.0 mi NW 6.9 mph - N/A   Clear
5:15 PM 73.4 °F 41.0 °F 31% 30.17 in 10.0 mi NW 5.8 mph - N/A   Clear
5:35 PM 71.6 °F 39.2 °F 31% 30.17 in 10.0 mi NW 6.9 mph - N/A   Clear
5:55 PM 69.8 °F 39.2 °F 33% 30.16 in 10.0 mi Calm Calm - N/A   Clear
6:10 PM 69.8 °F 41.0 °F 35% 30.16 in 10.0 mi Calm Calm - N/A   Clear
6:35 PM 68.0 °F 41.0 °F 37% 30.16 in 10.0 mi Calm Calm - N/A   Clear
6:50 PM 68.0 °F 39.2 °F 35% 30.16 in 10.0 mi NNW 5.8 mph - N/A   Clear
7:15 PM 66.2 °F 39.2 °F 37% 30.16 in 10.0 mi Variable 3.5 mph - N/A   Clear
7:35 PM 66.2 °F 41.0 °F 40% 30.16 in 10.0 mi Calm Calm - N/A   Clear
7:55 PM 66.2 °F 39.2 °F 37% 30.16 in 10.0 mi Calm Calm - N/A   Clear
8:10 PM 66.2 °F 41.0 °F 40% 30.16 in 10.0 mi Calm Calm - N/A   Clear
8:35 PM 66.2 °F 41.0 °F 40% 30.16 in 10.0 mi Calm Calm - N/A   Clear
8:55 PM 66.2 °F 37.4 °F 35% 30.16 in 10.0 mi Calm Calm - N/A   Clear
9:15 PM 69.8 °F 32.0 °F 25% 30.15 in 10.0 mi Calm Calm - N/A   Clear
9:35 PM 69.8 °F 28.4 °F 21% 30.15 in 10.0 mi ENE 6.9 mph - N/A   Clear
9:55 PM 71.6 °F 24.8 °F 17% 30.15 in 10.0 mi ENE 8.1 mph 15.0 mph N/A   Clear
10:15 PM 71.6 °F 24.8 °F 17% 30.15 in 10.0 mi ENE 8.1 mph - N/A   Clear
10:35 PM 71.6 °F 24.8 °F 17% 30.14 in 10.0 mi ENE 10.4 mph 17.3 mph N/A   Clear
10:55 PM 71.6 °F 24.8 °F 17% 30.14 in 10.0 mi ENE 11.5 mph - N/A   Clear
11:15 PM 71.6 °F 24.8 °F 17% 30.14 in 10.0 mi East 13.8 mph - N/A   Clear
11:30 PM 69.8 °F 24.8 °F 18% 30.14 in 10.0 mi East 12.7 mph - N/A   Clear
11:55 PM 69.8 °F 26.6 °F 20% 30.14 in 10.0 mi East 12.7 mph - N/A   Clear